User: anonymous   Login
Location: *
(45.1333°S, 169.6333°W)
Time: 12:34:01
(UTC+00:00)
Language:

USA 307 - Orbit

View from above orbital plane
View from above orbital plane
View from above satellite
View from above satellite

Ground track
Ground track

The orbit data is extracted from the following two-line orbital elements,

1 45875U 20046C   22225.89451550 0.00010191  00000-0  69221-3 0    09
2 45875  53.9798 225.3926 0004052 134.8916 225.1083 15.05911338    01
Epoch (UTC): 13 August 2022 21:28:06
Eccentricity: 0.0004052
inclination: 53.9798°
perigee height: 546 km
apogee height: 551 km
right ascension of ascending node: 225.3926°
argument of perigee: 134.8916°
revolutions per day: 15.05911338
mean anomaly at epoch: 225.1083°
orbit number at epoch: 0

The dashed part of the orbit path shows where the satellite is in the earth's shadow,  

DLR